This is the latest recevied weather packets stored in our database for station/object G4KVI. If no packets are shown the sender has not sent any weather packets the latest 10 day(s).
| Time | Temp. | Humidity | Pressure | Rain* | Wind** | Luminosity | Snow |
|---|---|---|---|---|---|---|---|
| 1777490403 | 15° C | 37% | 1022.9 hPa | 0 mm | - | 6 W/m² | - |
| 1777490103 | 15° C | 36% | 1023 hPa | 0 mm | - | 10 W/m² | - |
| 1777489803 | 15° C | 35% | 1022.9 hPa | 0 mm | - | 14 W/m² | - |
| 1777489503 | 15.56° C | 35% | 1022.6 hPa | 0 mm | - | 19 W/m² | - |
| 1777489203 | 15.56° C | 34% | 1022.5 hPa | 0 mm | - | 24 W/m² | - |
| 1777488903 | 15.56° C | 34% | 1022.4 hPa | 0 mm | - | 30 W/m² | - |
| 1777488603 | 16.11° C | 33% | 1022.5 hPa | 0 mm | - | 37 W/m² | - |
| 1777488304 | 16.11° C | 32% | 1022.6 hPa | 0 mm | - | 42 W/m² | - |
| 1777488004 | 16.11° C | 32% | 1022.4 hPa | 0 mm | - | 50 W/m² | - |
| 1777487704 | 16.67° C | 31% | 1022.1 hPa | 0 mm | - | 53 W/m² | - |
| 1777487404 | 16.67° C | 31% | 1022 hPa | 0 mm | - | 58 W/m² | - |
| 1777487104 | 16.67° C | 31% | 1022.2 hPa | 0 mm | - | 69 W/m² | - |
| 1777486804 | 17.22° C | 30% | 1022.3 hPa | 0 mm | - | 79 W/m² | - |
| 1777486504 | 17.22° C | 29% | 1022.1 hPa | 0 mm | - | 89 W/m² | - |
| 1777486204 | 17.22° C | 29% | 1022.2 hPa | 0 mm | - | 97 W/m² | - |
| 1777485904 | 17.22° C | 29% | 1022 hPa | 0 mm | - | 104 W/m² | - |
| 1777485604 | 17.22° C | 28% | 1021.9 hPa | 0 mm | - | 116 W/m² | - |
| 1777485305 | 17.78° C | 28% | 1022.2 hPa | 0 mm | - | 112 W/m² | - |
| 1777485004 | 17.78° C | 28% | 1022 hPa | 0 mm | - | 121 W/m² | - |
| 1777484704 | 17.78° C | 27% | 1021.9 hPa | 0 mm | - | 140 W/m² | - |
| 1777484404 | 17.78° C | 27% | 1022.1 hPa | 0 mm | - | 151 W/m² | - |
| 1777484104 | 17.78° C | 27% | 1022.1 hPa | 0 mm | - | 90 W/m² | - |
| 1777483804 | 17.78° C | 27% | 1022 hPa | 0 mm | - | 134 W/m² | - |
| 1777483504 | 17.78° C | 26% | 1022 hPa | 0 mm | - | 173 W/m² | - |
| 1777483204 | 18.33° C | 26% | 1022.1 hPa | 0 mm | - | 160 W/m² | - |
* Rain latest hour (hover to see other rain measurements)
** Current wind speed in m/s (hover to see current wind gust speed)